{"data":{"norad_id":67703,"intl_designator":"2026-025L","name":"STARLINK-36630","alt_names":[],"object_type":"PAYLOAD","status":"ACTIVE","operator":null,"country":"US","launch_date":"2026-02-07","launch_site_code":"AFWTR","launch_vehicle":null,"mission":null,"orbit_class":"UNKNOWN","rcs_meters":null,"size_class":null,"mass_kg":null,"dimensions":null,"purposes":["comms"],"wikipedia_slug":null,"has_3d_model":false,"image_url":null,"decayed_at":null,"tle_current":{"epoch":"2026-09-19T07:16:17.514336Z","epoch_age_seconds":172328,"freshness":"FRESH","line1":"1 67703U 26025L   26262.30298049  .00016480  00000+0  51159-3 0  9993","line2":"2 67703  97.2852  12.2402 0001106 256.5479 103.5641 15.33451108 35688","mean_motion":15.33451108,"eccentricity":0.0001106,"inclination_deg":97.2852,"raan_deg":12.2402,"arg_perigee_deg":256.5479,"mean_anomaly_deg":103.5641,"bstar":0.00051159,"rev_number":3568,"period_min":93.90583061224,"perigee_km":464.76809241044,"apogee_km":466.28191044515,"semimajor_km":6843.6620014278,"source":"CELESTRAK","updated_at":"2026-09-20T09:00:43.629564Z"}}}